When you browse on this site, cookies collect data to enhance your experience and personalize the content and advertising you see.
Visit our Privacy Policy to learn more. By continuing to use the site, you agree to this use of cookies and data.
  • In Spain
  • List of Countries
  • For 7 days
  • Water Temperature
  • Satellite Maps
  • Weather Map
  • Weather Widgets
  • user-avatar
    Login

    Hourly Weather Praia

    Today, 17 June, Monday

    Time Temperature Precipitation Wind Pressure Humidity
    00:00 +33°C° 0 mm 3 mps 683 mmHg 11%
    01:00 +31°C° 0 mm 2 mps 683 mmHg 12%
    02:00 +31°C° 0 mm 2 mps 683 mmHg 13%
    03:00 +30°C° 0 mm 2 mps 683 mmHg 13%
    04:00 +30°C° 0 mm 2 mps 683 mmHg 13%
    05:00 +29°C° 0 mm 2 mps 683 mmHg 14%
    06:00 +30°C° 0 mm 3 mps 683 mmHg 14%
    07:00 +31°C° 0 mm 3 mps 684 mmHg 14%
    08:00 +33°C° 0 mm 4 mps 685 mmHg 14%
    09:00 +34°C° 0 mm 4 mps 685 mmHg 14%
    10:00 +36°C° 0 mm 5 mps 685 mmHg 14%
    11:00 +39°C° 0 mm 5 mps 685 mmHg 13%
    12:00 +38°C° 0 mm 4 mps 685 mmHg 12%
    13:00 +39°C° 0 mm 3 mps 684 mmHg 11%
    14:00 +39°C° 0 mm 2 mps 684 mmHg 9%
    15:00 +40°C° 0 mm 2 mps 684 mmHg 9%
    16:00 +40°C° 0 mm 2 mps 683 mmHg 9%
    17:00 +40°C° 0 mm 2 mps 683 mmHg 9%
    18:00 +39°C° 0 mm 2 mps 683 mmHg 9%
    19:00 +38°C° 0 mm 2 mps 683 mmHg 10%
    20:00 +37°C° 0 mm 2 mps 683 mmHg 11%
    21:00 +35°C° 0 mm 1 mps 683 mmHg 12%
    22:00 +34°C° 0 mm 1 mps 684 mmHg 13%
    23:00 +31°C° 0 mm 0 mps 684 mmHg 14%

    Tomorrow, 18 June, Tuesday

    Time Temperature Precipitation Wind Pressure Humidity
    00:00 +32°C° 0 mm 1 mps 684 mmHg 16%
    01:00 +31°C° 0 mm 1 mps 683 mmHg 17%
    02:00 +31°C° 0 mm 2 mps 683 mmHg 19%
    03:00 +30°C° 0 mm 3 mps 683 mmHg 25%
    04:00 +29°C° 0 mm 5 mps 683 mmHg 31%
    05:00 +29°C° 0 mm 7 mps 683 mmHg 38%
    06:00 +29°C° 0 mm 7 mps 684 mmHg 44%
    07:00 +29°C° 0 mm 7 mps 685 mmHg 50%
    08:00 +29°C° 0 mm 7 mps 685 mmHg 57%
    09:00 +32°C° 0 mm 7 mps 685 mmHg 48%
    10:00 +34°C° 0 mm 6 mps 686 mmHg 40%
    11:00 +36°C° 0 mm 6 mps 686 mmHg 32%
    12:00 +37°C° 0 mm 4 mps 685 mmHg 26%
    13:00 +38°C° 0 mm 3 mps 685 mmHg 21%
    14:00 +39°C° 0 mm 1 mps 685 mmHg 16%
    15:00 +39°C° 0 mm 1 mps 684 mmHg 15%
    16:00 +39°C° 0 mm 1 mps 684 mmHg 15%
    17:00 +36°C° 0 mm 0 mps 683 mmHg 14%
    18:00 +39°C° 0 mm 1 mps 684 mmHg 15%
    19:00 +37°C° 0 mm 1 mps 684 mmHg 15%
    20:00 +38°C° 0 mm 2 mps 684 mmHg 16%
    21:00 +37°C° 0 mm 2 mps 684 mmHg 18%
    22:00 +36°C° 0 mm 3 mps 684 mmHg 21%
    23:00 +35°C° 0 mm 3 mps 685 mmHg 24%

    Day after tomorrow, 19 June, Wednesday

    Time Temperature Precipitation Wind Pressure Humidity
    00:00 +34°C° 0 mm 4 mps 684 mmHg 29%
    01:00 +32°C° 0 mm 5 mps 684 mmHg 34%
    02:00 +30°C° 0 mm 6 mps 683 mmHg 39%
    03:00 +30°C° 0 mm 5 mps 683 mmHg 41%
    04:00 +29°C° 0 mm 5 mps 683 mmHg 42%
    05:00 +29°C° 0 mm 4 mps 684 mmHg 44%
    06:00 +29°C° 0 mm 4 mps 684 mmHg 44%
    07:00 +29°C° 0 mm 5 mps 684 mmHg 43%
    08:00 +30°C° 0 mm 5 mps 685 mmHg 43%
    09:00 +33°C° 0 mm 4 mps 685 mmHg 37%
    10:00 +34°C° 0 mm 4 mps 685 mmHg 32%
    11:00 +36°C° 0 mm 3 mps 686 mmHg 27%
    12:00 +37°C° 0 mm 3 mps 685 mmHg 23%
    13:00 +38°C° 0 mm 2 mps 685 mmHg 19%
    14:00 +39°C° 0 mm 2 mps 684 mmHg 15%
    15:00 +39°C° 0 mm 2 mps 684 mmHg 14%
    16:00 +39°C° 0 mm 2 mps 683 mmHg 14%
    17:00 +40°C° 0 mm 2 mps 683 mmHg 13%
    18:00 +39°C° 0 mm 2 mps 683 mmHg 13%
    19:00 +39°C° 0 mm 2 mps 684 mmHg 14%
    20:00 +38°C° 0 mm 2 mps 684 mmHg 14%
    21:00 +37°C° 0 mm 2 mps 684 mmHg 15%
    22:00 +35°C° 0 mm 1 mps 684 mmHg 16%
    23:00 +34°C° 0 mm 1 mps 684 mmHg 17%

    20 June, Thursday

    Time Temperature Precipitation Wind Pressure Humidity
    00:00 +34°C° 0 mm 2 mps 683 mmHg 24%
    01:00 +33°C° 0 mm 4 mps 683 mmHg 30%
    02:00 +32°C° 0 mm 6 mps 683 mmHg 37%
    03:00 +30°C° 0 mm 5 mps 683 mmHg 39%
    04:00 +30°C° 0 mm 5 mps 683 mmHg 41%
    05:00 +29°C° 0 mm 5 mps 683 mmHg 42%
    06:00 +30°C° 0 mm 5 mps 683 mmHg 40%
    07:00 +32°C° 0 mm 5 mps 684 mmHg 38%
    08:00 +33°C° 0 mm 5 mps 684 mmHg 35%
    09:00 +34°C° 0 mm 5 mps 685 mmHg 31%
    10:00 +36°C° 0 mm 4 mps 685 mmHg 26%
    11:00 +38°C° 0 mm 4 mps 685 mmHg 21%
    12:00 +39°C° 0 mm 3 mps 685 mmHg 18%
    13:00 +40°C° 0 mm 3 mps 684 mmHg 15%
    14:00 +40°C° 0 mm 2 mps 684 mmHg 13%
    15:00 +42°C° 0 mm 3 mps 683 mmHg 12%
    16:00 +42°C° 0 mm 3 mps 683 mmHg 12%
    17:00 +42°C° 0 mm 4 mps 683 mmHg 11%
    18:00 +40°C° 0 mm 3 mps 683 mmHg 12%
    19:00 +39°C° 0 mm 2 mps 683 mmHg 12%
    20:00 +37°C° 0 mm 1 mps 683 mmHg 13%
    21:00 +36°C° 0 mm 1 mps 683 mmHg 15%
    22:00 +35°C° 0 mm 1 mps 683 mmHg 17%
    23:00 +35°C° 0 mm 2 mps 683 mmHg 20%

    21 June, Friday

    Time Temperature Precipitation Wind Pressure Humidity
    00:00 +34°C° 0 mm 2 mps 683 mmHg 23%
    01:00 +33°C° 0 mm 3 mps 682 mmHg 26%
    02:00 +33°C° 0 mm 3 mps 682 mmHg 28%
    03:00 +31°C° 0 mm 3 mps 682 mmHg 30%
    04:00 +30°C° 0 mm 3 mps 682 mmHg 31%
    05:00 +30°C° 0 mm 3 mps 682 mmHg 32%
    06:00 +30°C° 0 mm 5 mps 683 mmHg 34%
    07:00 +30°C° 0 mm 6 mps 683 mmHg 35%
    08:00 +32°C° 0 mm 7 mps 684 mmHg 37%
    09:00 +33°C° 0 mm 7 mps 684 mmHg 34%
    10:00 +35°C° 0 mm 6 mps 684 mmHg 31%
    11:00 +38°C° 0 mm 6 mps 685 mmHg 28%
    12:00 +39°C° 0 mm 5 mps 684 mmHg 23%
    13:00 +40°C° 0 mm 4 mps 684 mmHg 19%
    14:00 +42°C° 0 mm 3 mps 684 mmHg 14%
    15:00 +42°C° 0 mm 4 mps 683 mmHg 13%
    16:00 +42°C° 0 mm 4 mps 683 mmHg 13%
    17:00 +42°C° 0 mm 5 mps 682 mmHg 12%
    18:00 +40°C° 0 mm 5 mps 682 mmHg 16%
    19:00 +38°C° 0 mm 6 mps 682 mmHg 19%
    20:00 +36°C° 0 mm 6 mps 682 mmHg 23%
    21:00 +35°C° 0 mm 5 mps 682 mmHg 25%
    22:00 +34°C° 0 mm 4 mps 682 mmHg 27%
    23:00 +33°C° 0 mm 3 mps 682 mmHg 29%

    22 June, Saturday

    Time Temperature Precipitation Wind Pressure Humidity
    00:00 +31°C° 0 mm 3 mps 682 mmHg 32%
    01:00 +32°C° 0 mm 4 mps 681 mmHg 34%
    02:00 +30°C° 0 mm 4 mps 681 mmHg 36%
    03:00 +30°C° 0 mm 3 mps 681 mmHg 38%
    04:00 +29°C° 0 mm 3 mps 681 mmHg 40%
    05:00 +29°C° 0 mm 2 mps 682 mmHg 42%
    06:00 +29°C° 0 mm 4 mps 682 mmHg 43%
    07:00 +29°C° 0 mm 5 mps 683 mmHg 45%
    08:00 +29°C° 0 mm 7 mps 683 mmHg 47%
    09:00 +32°C° 0 mm 7 mps 683 mmHg 43%
    10:00 +33°C° 0 mm 6 mps 684 mmHg 39%
    11:00 +35°C° 0 mm 6 mps 684 mmHg 36%
    12:00 +38°C° 0 mm 6 mps 684 mmHg 30%
    13:00 +39°C° 0 mm 5 mps 683 mmHg 25%
    14:00 +41°C° 0 mm 5 mps 683 mmHg 19%
    15:00 +41°C° 0 mm 6 mps 682 mmHg 19%
    16:00 +40°C° 0 mm 6 mps 682 mmHg 19%
    17:00 +40°C° 0 mm 7 mps 681 mmHg 19%
    18:00 +39°C° 0 mm 7 mps 681 mmHg 20%
    19:00 +38°C° 0 mm 7 mps 682 mmHg 22%
    20:00 +35°C° 0 mm 8 mps 682 mmHg 24%
    21:00 +34°C° 0 mm 6 mps 682 mmHg 28%
    22:00 +33°C° 0 mm 5 mps 682 mmHg 32%
    23:00 +32°C° 0 mm 4 mps 682 mmHg 37%
    Show more